DW7787 Weather Reports


time (UTC)temp
C
wind
direction
speed
KPH
gust
KPH
rain 1hr
cm
rain 24hr
cm
rain mn
cm
humidity
%
barometer
mb
20260505001704 21 214 0.0 0.0 0.00 0.00 0.00 36 1014.9
20260505001203 21 214 0.0 0.0 0.00 0.00 0.00 35 1014.9
20260505000704 22 214 0.0 0.0 0.00 0.00 0.00 35 1014.8
20260505000204 22 214 0.0 0.0 0.00 0.00 0.00 34 1014.7
20260504235704 22 214 0.0 0.0 0.00 0.00 0.00 34 1014.7
20260504235549 22 214 0.0 3.2 0.00 0.00 0.00 33 1014.6
20260504235543 22 214 0.0 1.6 0.00 0.00 0.00 34 1014.7
20260504234204 23 214 0.0 3.2 0.00 0.00 0.00 33 1014.5
20260504233807 23 215 0.0 3.2 0.00 0.00 0.00 32 1014.4
20260504233747 23 214 0.0 1.6 0.00 0.00 0.00 33 1014.4
20260504232704 23 219 0.0 3.2 0.00 0.00 0.00 32 1014.4
20260504232505 23 225 1.6 6.4 0.00 0.00 0.00 31 1014.4
20260504231704 23 211 1.6 6.4 0.00 0.00 0.00 31 1014.4
20260504231509 23 170 1.6 4.8 0.00 0.00 0.00 31 1014.3
20260504230704 24 204 1.6 4.8 0.00 0.00 0.00 29 1014.4
20260504230504 24 213 1.6 4.8 0.00 0.00 0.00 31 1014.3
20260504225704 24 194 1.6 6.4 0.00 0.00 0.00 30 1014.3
20260504225202 24 197 1.6 6.4 0.00 0.00 0.00 29 1014.3
20260504224805 25 228 1.6 6.4 0.00 0.00 0.00 29 1014.3
20260504224745 24 202 1.6 4.8 0.00 0.00 0.00 28 1014.3
20260504223702 25 217 1.6 6.4 0.00 0.00 0.00 29 1014.2
20260504223510 25 242 3.2 4.8 0.00 0.00 0.00 27 1014.3
20260504222702 25 211 1.6 6.4 0.00 0.00 0.00 28 1014.3
20260504222201 25 188 3.2 8.0 0.00 0.00 0.00 28 1014.2
20260504222029 25 169 3.2 8.0 0.00 0.00 0.00 26 1014.4
20260504221200 25 161 3.2 8.0 0.00 0.00 0.00 25 1014.3
20260504221005 25 70 3.2 9.7 0.00 0.00 0.00 24 1014.4
20260504220202 26 259 3.2 9.7 0.00 0.00 0.00 24 1014.3
20260504215705 26 213 1.6 9.7 0.00 0.00 0.00 22 1014.3
20260504215209 26 247 1.6 8.0 0.00 0.00 0.00 26 1014.3
20260504214659 26 201 3.2 8.0 0.00 0.00 0.00 24 1014.3
20260504214153 26 231 3.2 6.4 0.00 0.00 0.00 25 1014.3
20260504213647 26 229 3.2 6.4 0.00 0.00 0.00 25 1014.4
20260504213144 26 196 3.2 6.4 0.00 0.00 0.00 25 1014.5
20260504212643 26 223 3.2 9.7 0.00 0.00 0.00 25 1014.5
20260504212145 26 308 3.2 9.7 0.00 0.00 0.00 25 1014.4
20260504211645 26 128 3.2 8.0 0.00 0.00 0.00 25 1014.4
20260504211141 26 194 3.2 8.0 0.00 0.00 0.00 25 1014.5
20260504210639 26 279 3.2 8.0 0.00 0.00 0.00 23 1014.5
20260504210135 26 192 3.2 6.4 0.00 0.00 0.00 25 1014.6
20260504205635 26 221 3.2 6.4 0.00 0.00 0.00 26 1014.5
20260504205135 26 209 1.6 6.4 0.00 0.00 0.00 26 1014.7
20260504204633 26 116 1.6 4.8 0.00 0.00 0.00 27 1014.7
20260504204446 26 310 3.2 6.4 0.00 0.00 0.00 26 1014.8
20260504203635 26 153 1.6 6.4 0.00 0.00 0.00 26 1014.8
20260504203133 27 110 1.6 6.4 0.00 0.00 0.00 26 1014.9
20260504202942 27 221 1.6 6.4 0.00 0.00 0.00 28 1015.0
20260504202130 26 213 3.2 9.7 0.00 0.00 0.00 29 1015.1
20260504201748 26 148 1.6 6.4 0.00 0.00 0.00 28 1015.0
20260504201726 26 132 1.6 9.7 0.00 0.00 0.00 27 1015.0
20260504200630 25 177 3.2 9.7 0.00 0.00 0.00 27 1015.1
20260504200127 26 105 3.2 9.7 0.00 0.00 0.00 26 1015.1
20260504195620 26 144 3.2 8.0 0.00 0.00 0.00 27 1015.3
20260504195114 26 132 3.2 8.0 0.00 0.00 0.00 26 1015.2
20260504194609 26 307 3.2 8.0 0.00 0.00 0.00 26 1015.3
20260504194105 25 173 3.2 8.0 0.00 0.00 0.00 28 1015.4
20260504193605 26 123 3.2 4.8 0.00 0.00 0.00 26 1015.5
20260504193107 26 175 3.2 8.0 0.00 0.00 0.00 27 1015.5
20260504192918 26 215 3.2 8.0 0.00 0.00 0.00 27 1015.6
20260504192359 26 222 3.2 6.4 0.00 0.00 0.00 29 1015.6
20260504191610 26 134 1.6 6.4 0.00 0.00 0.00 28 1015.6
20260504191108 26 129 1.6 6.4 0.00 0.00 0.00 26 1015.7
20260504190605 26 202 3.2 6.4 0.00 0.00 0.00 27 1015.8
20260504190106 26 226 1.6 6.4 0.00 0.00 0.00 25 1015.8
20260504185605 26 185 1.6 8.0 0.00 0.00 0.00 26 1015.9
20260504185409 25 213 1.6 8.0 0.00 0.00 0.00 25 1016.0
20260504184605 25 50 3.2 6.4 0.00 0.00 0.00 26 1016.0
20260504184105 25 121 3.2 6.4 0.00 0.00 0.00 27 1016.1
20260504183608 24 117 1.6 4.8 0.00 0.00 0.00 26 1016.1
20260504183411 24 119 3.2 8.0 0.00 0.00 0.00 27 1016.1
20260504182906 24 42 3.2 8.0 0.00 0.00 0.00 28 1016.2
20260504182101 24 130 3.2 6.4 0.00 0.00 0.00 28 1016.3
20260504181602 24 50 1.6 6.4 0.00 0.00 0.00 30 1016.2
20260504181056 25 30 1.6 6.4 0.00 0.00 0.00 28 1016.2
20260504180550 25 182 3.2 8.0 0.00 0.00 0.00 27 1016.2
20260504180044 24 53 3.2 8.0 0.00 0.00 0.00 27 1016.2
20260504175540 24 317 1.6 4.8 0.00 0.00 0.00 27 1016.2
20260504175039 23 197 3.2 6.4 0.00 0.00 0.00 31 1016.3
20260504174645 22 103 3.2 8.0 0.00 0.00 0.00 31 1016.4
20260504174626 23 50 3.2 8.0 0.00 0.00 0.00 29 1016.3
20260504173539 23 57 3.2 6.4 0.00 0.00 0.00 28 1016.6
20260504173038 23 336 1.6 4.8 0.00 0.00 0.00 28 1016.8
20260504172847 23 5 1.6 6.4 0.00 0.00 0.00 27 1016.9
20260504172037 23 258 1.6 6.4 0.00 0.00 0.00 28 1016.9
20260504171538 23 96 1.6 6.4 0.00 0.00 0.00 27 1016.8
20260504171039 23 69 1.6 6.4 0.00 0.00 0.00 26 1016.8
20260504170535 22 185 1.6 6.4 0.00 0.00 0.00 27 1016.9
20260504170334 22 41 3.2 4.8 0.00 0.00 0.00 28 1017.0
20260504151141 18 221 1.6 6.4 0.00 0.00 0.00 47 1018.3
20260504151111 18 10 3.2 6.4 0.00 0.00 0.00 46 1018.2
20260504141002 16 121 1.6 3.2 0.00 0.00 0.00 63 1018.1
20260504140504 15 132 1.6 3.2 0.00 0.00 0.00 62 1018.1
20260504130504 11 209 1.6 6.4 0.00 0.00 0.00 75 1018.3
20260504130309 11 269 1.6 6.4 0.00 0.00 0.00 76 1018.2
20260504110505 6 264 0.0 1.6 0.00 0.00 0.00 87 1017.9
20260504100501 6 264 0.0 1.6 0.00 0.00 0.00 85 1017.4
20260504082001 10 264 0.0 1.6 0.00 0.00 0.00 72 1017.2
20260504081503 10 264 0.0 1.6 0.00 0.00 0.00 71 1017.2
20260504080957 10 264 0.0 1.6 0.00 0.00 0.00 70 1017.1
20260504080451 10 264 0.0 1.6 0.00 0.00 0.00 70 1017.1
20260504050407 11 264 0.0 1.6 0.00 0.00 0.00 68 1017.4
20260504045904 11 264 0.0 1.6 0.00 0.00 0.00 68 1017.5
20260504045713 11 264 0.0 0.0 0.00 0.00 0.00 67 1017.5
20260504044904 11 264 0.0 0.0 0.00 0.00 0.00 67 1017.6
20260504044404 11 264 0.0 0.0 0.00 0.00 0.00 68 1017.5
20260504043904 11 264 0.0 1.6 0.00 0.00 0.00 68 1017.5
20260504043404 11 264 0.0 1.6 0.00 0.00 0.00 69 1017.5
20260504042904 11 264 0.0 1.6 0.00 0.00 0.00 69 1017.6
20260504042403 11 264 0.0 1.6 0.00 0.00 0.00 67 1017.6
20260504041903 11 264 0.0 0.0 0.00 0.00 0.00 66 1017.7
20260504041405 12 264 0.0 0.0 0.00 0.00 0.00 65 1017.8
20260504040904 12 264 0.0 0.0 0.00 0.00 0.00 65 1017.9
20260504040404 12 264 0.0 0.0 0.00 0.00 0.00 65 1017.9
20260504035907 12 264 0.0 0.0 0.00 0.00 0.00 64 1017.9
20260504035512 12 264 0.0 0.0 0.00 0.00 0.00 65 1017.9
20260504035447 12 264 0.0 0.0 0.00 0.00 0.00 64 1017.9
20260504034401 12 264 0.0 0.0 0.00 0.00 0.00 63 1017.9
20260504033901 12 264 0.0 0.0 0.00 0.00 0.00 62 1017.9
20260504033401 12 264 0.0 0.0 0.00 0.00 0.00 61 1018.0
20260504032901 12 264 0.0 0.0 0.00 0.00 0.00 61 1017.9
20260504032402 12 264 0.0 0.0 0.00 0.00 0.00 61 1017.9
20260504031900 12 264 0.0 0.0 0.00 0.00 0.00 61 1018.0
20260504031353 13 264 0.0 0.0 0.00 0.00 0.00 61 1017.9
20260504031149 13 264 0.0 0.0 0.00 0.00 0.00 60 1017.9
20260504030342 13 264 0.0 0.0 0.00 0.00 0.00 56 1017.9
20260504030139 13 264 0.0 0.0 0.00 0.00 0.00 56 1017.9
20260504025335 13 264 0.0 0.0 0.00 0.00 0.00 55 1017.8
20260504024832 13 264 0.0 1.6 0.00 0.00 0.00 55 1017.9
20260504024332 13 264 0.0 1.6 0.00 0.00 0.00 56 1017.8
20260504023833 13 264 0.0 1.6 0.00 0.00 0.00 55 1017.8
20260504023633 13 244 0.0 1.6 0.00 0.00 0.00 54 1017.7
20260504022830 13 244 0.0 1.6 0.00 0.00 0.00 54 1017.7
20260504022327 14 245 0.0 1.6 0.00 0.00 0.00 53 1017.6
20260504021827 14 245 0.0 1.6 0.00 0.00 0.00 53 1017.5
20260504021330 14 245 0.0 1.6 0.00 0.00 0.00 52 1017.5
20260504021132 14 245 0.0 0.0 0.00 0.00 0.00 52 1017.4
20260504020326 14 245 0.0 0.0 0.00 0.00 0.00 51 1017.3
20260504015825 14 245 0.0 1.6 0.00 0.00 0.00 51 1017.2
20260504015324 14 245 0.0 1.6 0.00 0.00 0.00 51 1017.2
20260504014823 15 245 0.0 0.0 0.00 0.00 0.00 50 1017.2
20260504014327 15 245 0.0 0.0 0.00 0.00 0.00 49 1017.1
20260504013821 15 245 0.0 1.6 0.00 0.00 0.00 49 1017.1
20260504013320 15 245 0.0 1.6 0.00 0.00 0.00 50 1017.0
20260504012826 15 246 0.0 1.6 0.00 0.00 0.00 50 1017.1
20260504012320 15 246 0.0 0.0 0.00 0.00 0.00 50 1017.0
20260504011819 15 246 0.0 0.0 0.00 0.00 0.00 49 1017.0
20260504011611 15 246 0.0 0.0 0.00 0.00 0.00 46 1016.9
20260504011133 16 246 0.0 1.6 0.00 0.00 0.00 45 1016.9
20260504010316 16 246 0.0 1.6 0.00 0.00 0.00 44 1016.8
20260504005816 16 246 0.0 1.6 0.00 0.00 0.00 44 1016.9
20260504005315 16 246 0.0 1.6 0.00 0.00 0.00 45 1016.8
20260504004816 16 246 0.0 0.0 0.00 0.00 0.00 45 1016.8
20260504004317 16 246 0.0 0.0 0.00 0.00 0.00 44 1016.8
20260504003818 16 246 0.0 0.0 0.00 0.00 0.00 44 1016.8
20260504003315 16 246 0.0 0.0 0.00 0.00 0.00 44 1016.7
20260504002813 17 246 0.0 0.0 0.00 0.00 0.00 44 1016.7
20260504002315 17 246 0.0 0.0 0.00 0.00 0.00 44 1016.6